SCOUT X-1 R/B, 82

Orbit data source: Space-Track

SCOUT X-1 R/B, 82 is space debris in LEO originally from a launch on Thu, 16 Feb 1961 UTC launched from the Wallops Island (WLPIS). Debris objects in space refer to the collection of defunct objects orbiting the Earth. Examples of debris include non-operational satellites, rocket bodies, and fragments generated from explosions, collisions, or faulty payload assembly.

Loading next visibility...
Identifier
82, 1961-004B
Orbit
LEO
Last TLE update
17 hours ago
Origin
Manufacturer
ABL
Mission
Spacecraft
Bus & Motor
ALTAIR, Unknown motor
Mass
53 kg wet, 24 kg dry
Launch date (UTC)
1961-02-16 (64 years ago)
Launch vehicle
Unknown
Launch site
Wallops Island (WLPIS)
Object type
Payload
Rocket body
Debris
Shape & HBR
Cyl, 0.8 m
Radar Cross Section
0.687 m², Medium (>0.1 m² and < 1m²)

Expand to show TLE details & history

TLE from 17 hours ago
0 SCOUT X-1 R/B
1 00082U 61004B   25199.88170424  .00000292  00000-0  28748-3 0  9996
2 00082  38.8529 157.6559 1166964  52.7217 317.4258 12.27672502 35835
Epoch: 2025-07-18T21:09Z
TLE epoch observation values (Epoch: 2025-07-18T21:09:39.246Z)
Latitude
0.00004°
Longitude
-96.68438°
Altitude
933.007 km
Speed
7.672 km/s
True Right ascension
10h 30m 37s
True Declination
0° 00' 00"
Sunlit
Object was in daylight at epoch
Visualization orbit readout
Latitude
-15.59803°
Longitude
-119.55599°
Altitude
1,320.104 km
Speed
7.307 km/s
Apparent Right ascension
11h 21m 03s
Apparent Declination
-36° 11' 30"
Sunlit
Object is in daylight
Visualization observer readout
Local Sidereal Time
03:26:59
Azimuth
106.174° ESE
Elevation
-42.407°
Doppler factor
1
Orbital elements
Apogee altitude
2,488.165 km
Perigee altitude
635.082 km
Semi-major axis
7,939.76 km
Eccentricity
0.1167
Inclination
38.8529°
RAAN
157.6559°
Arg. of periapsis
52.7217°
True anomaly
307.34882°
Mean anomaly
317.4258°
Eccentric anomaly
312.49588°
Mean motion
3.06784 °/min
Orbital period
117.35 mins
BSTAR
0.00028748
Loading maneuver chart data...
Loading SW <> Apogee altitude chart data...
Loading historical data...
Loading historical data...
Loading historical data...
Loading historical data...
Loading historical data...
Loading historical data...
Loading historical data...
|